Flag for U.S.A. Weather past 2 weeks in Medford, Oregon, U.S.A.

Now
44 °F

Sunny.


Feels Like: 44 °F
Forecast: 29 / 54 °F
Wind: No wind

Location: Rogue Valley International Airport

Current Time: Jan 31, 2015 at 1:24:42 PM

Latest Report: Jan 31, 2015 at 12:53 PM


Visibility: 10 mi

Pressure: 30.16 "Hg

Humidity: 73%

Dew point: 36 °F

Location of MedfordLocation

Historic Weather in Medford — Graph

°F

Medford temperature yesterday

Maximum temperature yesterday: 54 °F (at 4:53 PM)
Minimum temperature yesterday: 32 °F (at 5:02 AM)
Average temperature yesterday: 40 °F

Past Weeks' High & Low Weather Summary

 TemperatureHumidityPressure
High59 °F (Jan 24, 3:53 PM)100% (Jan 17, 10:53 PM)30.55 "Hg (Jan 17, 10:53 PM)
Low31 °F (Jan 19, 5:53 AM)51% (Jan 18, 2:53 PM)29.99 "Hg (Jan 17, 10:53 PM)
Average42 °F88%30.26 "Hg
* Reported Jan 16 12:53 PM — Jan 31 12:00 Noon, Medford, Weather by CustomWeather, © 2014

Note: Actual official high and low records may vary slightly from our data, if they occured in-between our weather recording intervals... More about our weather records

Advertising

Medford weather history for previous 24 hours

 ConditionsComfort  
Time TempWeatherWind HumidityBarometerVisibility
12:00 PM
Jan 31
37 °FFog.No wind96%30.18 "Hg2 mi
10:53 AM34 °FFog.No wind100%30.25 "Hg0 mi
9:53 AM33 °FFog.3 mph100%30.24 "Hg0 mi
8:53 AM32 °FFog.3 mph100%30.24 "Hg0 mi
7:53 AM32 °FFog.No wind100%30.23 "Hg0 mi
6:53 AM32 °FFog.No wind96%30.21 "Hg0 mi
5:53 AM31 °FIce fog.6 mph100%30.20 "Hg0 mi
4:53 AM32 °FFog.No wind96%30.20 "Hg0 mi
3:53 AM31 °FIce fog.No wind96%30.20 "Hg0 mi
2:59 AM31 °FIce fog.No wind96%30.18 "Hg1 mi
1:53 AM34 °FFog.No wind92%30.21 "Hg5 mi
12:53 AM35 °FFog.No wind96%30.21 "Hg5 mi
11:53 PM
Jan 30
37 °FFog.3 mph89%30.20 "Hg6 mi
10:53 PM37 °FClear.5 mph93%30.21 "Hg8 mi
9:53 PM41 °FClear.No wind89%30.20 "Hg9 mi
8:53 PM41 °FClear.6 mph89%30.20 "Hg9 mi
7:53 PM42 °FClear.7 mph89%30.19 "Hg10 mi
6:53 PM48 °FClear.5 mph77%30.16 "Hg10 mi
5:53 PM51 °FClear.No wind71%30.16 "Hg10 mi
4:53 PM54 °FSunny.No wind62%30.14 "Hg10 mi
3:53 PM53 °FSunny.3 mph66%30.11 "Hg10 mi
2:53 PM51 °FSunny.7 mph71%30.11 "Hg10 mi
1:53 PM47 °FSunny.No wind77%30.15 "Hg10 mi
Weather by CustomWeather, © 2014

See weather overviewHow to use our weather pages